阿斯特拉 1C星 (ASTRA 1C)

导读 | 豆包AI

ASTRA 1C是SES公司于1993年5月12日发射的通信卫星,隶属于阿斯特拉卫星系列。该卫星定点于地球静止轨道,主要为欧洲地区提供广播电视信号传输服务,支持多频道数字电视广播,满足欧洲家庭的卫星电视接收需求。作为SES早期重要卫星,它在推动欧洲卫星通信普及、广播电视数字化转型中发挥了关键作用,服役期间保障了稳定的信号传输服务。

基本信息
目录编号:
22653
目录名称:
ASTRA 1C
国际标识:
1993-031A
轨道中心:
EARTH
卫星名称:
阿斯特拉 1C星
卫星全名:
阿斯特拉 1C星 (ASTRA 1C)
卫星状态:
在轨 (已飞行11984 天)
发射日期:
1993-05-12 UTC
国别 :
(SES)
星等 :
--
轨道信息
数据来源 国际轨道数据 AOE轨道数据
星历时间 2026-03-04T20:27:25+0800
5小时前
查看轨道信息
2026-03-02T04:00:00+0800
2天前
查看轨道信息
半长轴 42571.325km 42571.095km
偏心率 0.0004265 0.0004359
轨道倾角 12.709° 12.705°
近地点辐角 344.677° 344.088°
升交点赤经 26.358° 26.379°
平近点角 69.233° 194.159°
近地点 36175.031km 36174.401km
远地点 36211.345km 36211.515km
周期 1456.919分钟 1456.907分钟
每日圈数 0.988387 0.988395
详细信息
卫星平台:
HS-601
平衡模式:
三轴稳定
覆盖范围:
全球
运营商:
欧洲卫星公司
运营商所在国:
卢森堡
制造商(研发单位):
休斯公司
制造商所在国:
美国
使用方式:
暂无
卫星简介
阿斯特拉卫星是由SES阿斯特拉运营的商业通信卫星,主要提供电视直播到户业务。Astra卫星包括三个系列共19颗卫星,分别定点在三个不同轨位:Astra-1系列包括十三颗卫星,定点东经19.2度;Astra-2系列包括4颗卫星,定点东经28.2度;Astra-3系列包括2颗卫星,定点东经23.5度。该卫星已退役。
2D轨道图
3D轨道图
轨道高度分析图
轨道倾角分析图
轨道综合分析图
查看轨道综合分析图